{"data":{"norad_id":55960,"epoch":"2026-05-25T05:02:47.532768Z","epoch_age_seconds":63725,"freshness":"FRESH","line1":"1 55960U 23037AY  26145.21027237  .00000486  00000+0  48511-4 0  9992","line2":"2 55960  70.0001  71.5677 0003045 269.1347  90.9463 14.98332311175933","mean_motion":14.98332311,"eccentricity":0.0003045,"inclination_deg":70.0001,"raan_deg":71.5677,"arg_perigee_deg":269.1347,"mean_anomaly_deg":90.9463,"bstar":4.8511e-5,"rev_number":17593,"period_min":96.106850892038,"perigee_km":569.93241281757,"apogee_km":574.1650759359,"semimajor_km":6950.1857443767,"source":"CELESTRAK","updated_at":"2026-05-25T13:38:17.920236Z"}}